This demonstration page uses our WeatherBlox Daily Observations layout. Learn more.

Left ArrowRight Arrow

39.29038, -76.61219

Hourly Observations for September 30, 2020

Temp ( °F °C ) Dew Point ( °F °C ) Humidity (%) Winds ( mph kmh ) Pressure ( in mb ) Visibility ( mi km ) Precip ( " mm )
12:16 am 00:16 Cloudy with Rain 57 13.9 54 12.2 90 90 NW 8 13 29.69 1005 3 5 0.08 2.03
12:54 am 00:54 Cloudy with Light Rain 57 13.9 54 12.2 90 90 NW 8 13 29.65 1004 8 13 0.15 3.81
1:54 am 01:54 Cloudy with Light Rain 57 13.9 53 11.7 87 87 NE 6 9 29.59 1002 10 16 0.02 0.51
2:54 am 02:54 Cloudy with Light Rain 57 13.9 54 12.2 90 90 WSW 10 17 29.62 1003 9 14 0.03 0.76
3:22 am 03:22 Cloudy with Light Rain 57 13.9 54 12.2 90 90 WSW 14 22 29.65 1004 9 14 0.02 0.51
3:54 am 03:54 Cloudy with Light Rain 56 13.3 54 12.2 93 93 W 14 22 29.65 1004 3 4 0.05 1.27
4:08 am 04:08 Cloudy with Mist and Fog 56 13.3 54 12.2 93 93 W 14 22 29.67 1005 5 8 0.00 0.00
4:17 am 04:17 Cloudy 56 13.3 53 11.7 90 90 W 10 17 29.67 1005 8 13 0.00 0.00
4:54 am 04:54 Cloudy 56 13.3 53 11.7 90 90 W 9 15 29.69 1005 10 16 0.00 0.00
5:54 am 05:54 Cloudy 57 13.9 53 11.7 87 87 WSW 10 17 29.72 1006 10 16 0.00 0.00
6:54 am 06:54 Mostly Cloudy 56 13.3 53 11.7 90 90 WSW 8 13 29.74 1007 10 16 0.00 0.00
7:54 am 07:54 Partly Cloudy 56 13.3 52 11.1 87 87 SW 8 13 29.78 1008 10 16 0.00 0.00
8:54 am 08:54 Mostly Sunny 59 15 53 11.7 81 81 WSW 12 19 29.80 1009 10 16 0.00 0.00
9:54 am 09:54 Mostly Sunny 62 16.7 52 11.1 70 70 WSW 14 22 29.82 1010 10 16 0.00 0.00
10:54 am 10:54 Mostly Sunny 65 18.3 48 8.9 54 54 W 17 28 29.82 1010 10 16 0.00 0.00
11:54 am 11:54 Partly Cloudy 67 19.4 48 8.9 51 51 W 15 24 29.83 1010 10 16 0.00 0.00
12:54 pm 12:54 Partly Cloudy 69 20.6 48 8.9 47 47 WSW 14 22 29.83 1010 10 16 0.00 0.00
1:54 pm 13:54 Partly Cloudy 70 21.1 46 7.8 42 42 W 13 20 29.83 1010 10 16 0.00 0.00
2:54 pm 14:54 Partly Cloudy 71 21.7 46 7.8 41 41 W 12 19 29.82 1010 10 16 0.00 0.00
3:54 pm 15:54 Partly Cloudy 71 21.7 47 8.3 42 42 SW 13 20 29.81 1010 10 16 0.00 0.00
4:54 pm 16:54 Mostly Sunny 71 21.7 49 9.4 46 46 SW 10 17 29.81 1010 10 16 0.00 0.00
5:54 pm 17:54 Sunny 69 20.6 50 10 51 51 VRB 7 11 29.82 1010 10 16 0.00 0.00
6:54 pm 18:54 Clear 66 18.9 50 10 56 56 S 6 9 29.84 1011 10 16 0.00 0.00
7:54 pm 19:54 Clear 63 17.2 51 10.6 65 65 S 5 7 29.86 1011 10 16 0.00 0.00
8:54 pm 20:54 Clear 62 16.7 51 10.6 67 67 S 3 6 29.87 1012 10 16 0.00 0.00
9:54 pm 21:54 Clear 62 16.7 51 10.6 67 67 SSW 7 11 29.87 1012 10 16 0.00 0.00
10:54 pm 22:54 Clear 60 15.6 51 10.6 72 72 SW 6 9 29.88 1012 10 16 0.00 0.00
11:54 pm 23:54 Clear 60 15.6 51 10.6 72 72 Calm 29.89 1012 10 16 0.00 0.00

Powered by AerisWeather